This is the latest recevied weather packets stored in our database for station/object W0WC. If no packets are shown the sender has not sent any weather packets the latest 1 day(s).
| Time | Temp. | Humidity | Pressure | Rain* | Wind** | Luminosity | Snow |
|---|---|---|---|---|---|---|---|
| 1777986426 | 12.78° C | 89% | 1008 hPa | 0 mm | 3.13 m/s, 42° | 15 W/m² | - |
| 1777986124 | 12.78° C | 89% | 1008 hPa | 0 mm | 4.02 m/s, 348° | 14 W/m² | - |
| 1777985821 | 13.33° C | 89% | 1007.5 hPa | 0 mm | 1.79 m/s, 28° | 21 W/m² | - |
| 1777985518 | 13.33° C | 89% | 1007.3 hPa | 0 mm | 0.89 m/s, 15° | 29 W/m² | - |
| 1777985214 | 13.33° C | 89% | 1007.2 hPa | 0 mm | 2.24 m/s, 350° | 31 W/m² | - |
| 1777984911 | 13.33° C | 89% | 1007.3 hPa | 0 mm | 2.68 m/s, 44° | 33 W/m² | - |
| 1777984607 | 13.33° C | 89% | 1006.9 hPa | 0 mm | 1.34 m/s, 17° | 32 W/m² | - |
| 1777984304 | 13.33° C | 89% | 1007.1 hPa | 0 mm | 2.24 m/s, 27° | 27 W/m² | - |
| 1777984000 | 13.33° C | 89% | 1007.1 hPa | 0 mm | 1.79 m/s, 39° | 16 W/m² | - |
| 1777983698 | 13.89° C | 89% | 1007.1 hPa | 0 mm | 1.79 m/s, 351° | 19 W/m² | - |
| 1777983394 | 13.89° C | 89% | 1006.9 hPa | 0 mm | 1.79 m/s, 28° | 39 W/m² | - |
| 1777983091 | 13.89° C | 88% | 1006.6 hPa | 0 mm | 0.89 m/s, 47° | 39 W/m² | - |
| 1777982787 | 13.89° C | 89% | 1006.5 hPa | 0 mm | 1.34 m/s, 4° | 30 W/m² | - |
| 1777982483 | 13.89° C | 89% | 1006.3 hPa | 0 mm | 0.89 m/s, 59° | 33 W/m² | - |
| 1777982178 | 14.44° C | 89% | 1006.1 hPa | 0 mm | 1.34 m/s, 3° | 35 W/m² | - |
| 1777981875 | 14.44° C | 89% | 1006.2 hPa | 0 mm | 1.79 m/s, 359° | 26 W/m² | - |
| 1777981572 | 14.44° C | 89% | 1006.3 hPa | 0 mm | 0.45 m/s, 24° | 18 W/m² | - |
| 1777981269 | 14.44° C | 89% | 1006.2 hPa | 0 mm | 3.58 m/s, 18° | 13 W/m² | - |
| 1777980965 | 15° C | 90% | 1006.5 hPa | 0 mm | 1.34 m/s, 13° | 10 W/m² | - |
| 1777980662 | 15° C | 91% | 1006.1 hPa | 0 mm | 0.45 m/s, 17° | 7 W/m² | - |
| 1777980358 | 15° C | 91% | 1006 hPa | 0 mm | 1.34 m/s, 48° | 5 W/m² | - |
| 1777980057 | 15° C | 91% | 1005.7 hPa | 0 mm | 0.45 m/s, 2° | 3 W/m² | - |
| 1777979756 | 15° C | 91% | 1005.5 hPa | 0 mm | 1.79 m/s, 21° | 2 W/m² | - |
| 1777979452 | 15.56° C | 92% | 1005.7 hPa | 0 mm | 0.89 m/s, 12° | 1 W/m² | - |
| 1777979149 | 15.56° C | 93% | 1005.8 hPa | 0 mm | 1.79 m/s, 82° | 0 W/m² | - |
* Rain latest hour (hover to see other rain measurements)
** Current wind speed in m/s (hover to see current wind gust speed)